STARLINK-1622, 46128

Orbit data source: Space-Track

STARLINK-1622, 46128 is a payload satellite owned by SpaceX/Seattle (US) in LEO that was launched on Tue, 18 Aug 2020 UTC via an FALCON 9 launch vehicle from the Air Force Eastern Test Range (AFETR). Payload-class satellites include a variety of spacecraft equipped with specific instruments for various scientific and technological missions. These include communications satellites like Starlink; space stations such as the ISS; scientific satellites like the Hubble; Earth observation satellites from companies like Planet Labs, Umbra, and HawkEye 360; GPS; miniature CubeSats for education and research; and military/defense satellites.

Not visible in the next 10 days
Identifier
46128, 2020-057M
Orbit
LEO
Country
Flag of USUS
Related business
Manufacturer
SpaceX/Seattle
Mission
Partially operational Commercial Communications
Bus & Motor
STARLINK, Unknown motor
Mass
260 kg wet, ~248 kg dry
Launch date (UTC)
2020-08-18 (6 years ago)
Launch vehicle
FALCON 9
Launch site
Air Force Eastern Test Range (AFETR)
Object type
Payload
Rocket body
Debris
Shape & HBR
Box + 1 Pan, 10.1 m
Radar Cross Section
13.562 m², Large (>1 m²)

Expand to show TLE details & history
Last TLE update: 2 days ago

TLE from 2 days ago
0 STARLINK-1622
1 46128U 20057M   26171.50003471  .00272156  38263-4  89009-3 0  9990
2 46128  53.0124  71.7531 0004652 146.3300 230.2540 15.90160839  6044
Epoch: 2026-06-20T12:00Z
TLE epoch observation values (Epoch: 2026-06-20T12:00:02.998Z)
Latitude
13.14839°
Longitude
-6.89716°
Altitude
303.966 km
Speed
7.727 km/s
True Right ascension
05h 27m 18s
True Declination
13° 04' 02"
Sunlit
Object was in daylight at epoch
Visualization orbit readout
Latitude
Unknown
Longitude
Unknown
Altitude
Unknown
Speed
Unknown
Apparent Right ascension
Unknown
Apparent Declination
Unknown
Sunlit
N/A
Visualization observer readout
Local Sidereal Time
21:38:55
Azimuth
Unknown
Elevation
Unknown
Doppler factor
Unknown
Orbital elements
Apogee altitude
305.227 km
Perigee altitude
299.012 km
Semi-major axis
6,680.257 km
Eccentricity
0.00047
Inclination
53.0124°
RAAN
71.7531°
Arg. of periapsis
146.33°
True anomaly
230.21303°
Mean anomaly
230.254°
Eccentric anomaly
230.23351°
Mean motion
3.97515 °/min
Orbital period
90.56 mins
BSTAR
0.00089009
Loading maneuver chart data...
Computing Atmospheric mass density...

Documentation

Showing up to 5 results
|